Year,Month,Day,Hour,Minute,Value (Times are PST for temperature in C)
2011,06,15,00,00,10.10
2011,06,15,00,01,10.10
2011,06,15,00,05,10.10
2011,06,15,00,06,10.10
2011,06,15,00,07,10.10
2011,06,15,00,08,10.10
2011,06,15,00,09,10.10
2011,06,15,00,10,10.10
2011,06,15,00,11,10.00
2011,06,15,00,12,10.00
2011,06,15,00,13,10.00
2011,06,15,00,14,10.00
2011,06,15,00,15,10.00
2011,06,15,00,16,9.90
2011,06,15,00,17,9.90
2011,06,15,00,18,9.90
2011,06,15,00,19,9.90
2011,06,15,00,20,9.90
2011,06,15,00,21,9.90
2011,06,15,00,22,9.90
2011,06,15,00,23,9.90
2011,06,15,00,24,9.90
2011,06,15,00,25,9.80
2011,06,15,00,26,9.80
2011,06,15,00,27,9.80
2011,06,15,00,28,9.80
2011,06,15,00,29,9.80
2011,06,15,00,30,9.80
2011,06,15,00,31,9.80
2011,06,15,00,32,9.80
2011,06,15,00,33,9.80
2011,06,15,00,34,9.80
2011,06,15,00,35,9.80
2011,06,15,00,36,9.80
2011,06,15,00,37,9.80
2011,06,15,00,38,9.80
2011,06,15,00,39,9.80
2011,06,15,00,40,9.80
2011,06,15,00,41,9.80
2011,06,15,00,42,9.80
2011,06,15,00,43,9.80
2011,06,15,00,44,9.80
2011,06,15,00,45,9.80
2011,06,15,00,46,9.70
2011,06,15,00,47,9.70
2011,06,15,00,48,9.70
2011,06,15,00,49,9.70
2011,06,15,00,50,9.70
2011,06,15,00,51,9.70
2011,06,15,00,52,9.70
2011,06,15,00,53,9.70
2011,06,15,00,54,9.70
2011,06,15,00,55,9.70
2011,06,15,00,56,9.70
2011,06,15,00,57,9.70
2011,06,15,00,58,9.70
2011,06,15,00,59,9.70
2011,06,15,01,00,9.70
2011,06,15,01,01,9.60
2011,06,15,01,02,9.60
2011,06,15,01,03,9.60
2011,06,15,01,04,9.60
2011,06,15,01,05,9.60
2011,06,15,01,06,9.60
2011,06,15,01,07,9.60
2011,06,15,01,08,9.60
2011,06,15,01,09,9.60
2011,06,15,01,10,9.60
2011,06,15,01,11,9.60
2011,06,15,01,12,9.60
2011,06,15,01,13,9.60
2011,06,15,01,14,9.60
2011,06,15,01,15,9.60
2011,06,15,01,16,9.60
2011,06,15,01,17,9.60
2011,06,15,01,18,9.60
2011,06,15,01,19,9.60
2011,06,15,01,20,9.60
2011,06,15,01,21,9.50
2011,06,15,01,22,9.60
2011,06,15,01,23,9.60
2011,06,15,01,24,9.60
2011,06,15,01,25,9.60
2011,06,15,01,26,9.60
2011,06,15,01,27,9.60
2011,06,15,01,28,9.60
2011,06,15,01,29,9.60
2011,06,15,01,30,9.60
2011,06,15,01,31,9.60
2011,06,15,01,32,9.60
2011,06,15,01,33,9.60
2011,06,15,01,34,9.60
2011,06,15,01,35,9.50
2011,06,15,01,36,9.50
2011,06,15,01,37,9.50
2011,06,15,01,38,9.50
2011,06,15,01,39,9.50
2011,06,15,01,40,9.50
2011,06,15,01,41,9.50
2011,06,15,01,42,9.60
2011,06,15,01,43,9.60
2011,06,15,01,44,9.60
2011,06,15,01,45,9.60
2011,06,15,01,46,9.60
2011,06,15,01,47,9.60
2011,06,15,01,48,9.60
2011,06,15,01,49,9.60
2011,06,15,01,50,9.60
2011,06,15,01,51,9.60
2011,06,15,01,52,9.60
2011,06,15,01,53,9.60
2011,06,15,01,54,9.60
2011,06,15,01,55,9.60
2011,06,15,01,56,9.50
2011,06,15,01,57,9.50
2011,06,15,01,58,9.50
2011,06,15,01,59,9.50
2011,06,15,02,00,9.50
2011,06,15,02,01,9.50
2011,06,15,02,02,9.50
2011,06,15,02,03,9.50
2011,06,15,02,04,9.50
2011,06,15,02,05,9.50
2011,06,15,02,06,9.50
2011,06,15,02,07,9.50
2011,06,15,02,08,9.50
2011,06,15,02,09,9.50
2011,06,15,02,10,9.50
2011,06,15,02,11,9.50
2011,06,15,02,12,9.50
2011,06,15,02,13,9.50
2011,06,15,02,14,9.50
2011,06,15,02,15,9.50
2011,06,15,02,16,9.50
2011,06,15,02,17,9.50
2011,06,15,02,18,9.50
2011,06,15,02,19,9.50
2011,06,15,02,20,9.50
2011,06,15,02,21,9.50
2011,06,15,02,22,9.50
2011,06,15,02,23,9.50
2011,06,15,02,24,9.50
2011,06,15,02,25,9.50
2011,06,15,02,26,9.50
2011,06,15,02,27,9.50
2011,06,15,02,28,9.50
2011,06,15,02,29,9.50
2011,06,15,02,30,9.50
2011,06,15,02,31,9.50
2011,06,15,02,32,9.50
2011,06,15,02,33,9.50
2011,06,15,02,34,9.50
2011,06,15,02,35,9.50
2011,06,15,02,36,9.50
2011,06,15,02,37,9.50
2011,06,15,02,38,9.50
2011,06,15,02,39,9.50
2011,06,15,02,40,9.50
2011,06,15,02,41,9.40
2011,06,15,02,42,9.50
2011,06,15,02,43,9.50
2011,06,15,02,44,9.40
2011,06,15,02,45,9.40
2011,06,15,02,46,9.40
2011,06,15,02,47,9.40
2011,06,15,02,48,9.40
2011,06,15,02,49,9.40
2011,06,15,02,50,9.40
2011,06,15,02,51,9.40
2011,06,15,02,52,9.40
2011,06,15,02,53,9.40
2011,06,15,02,54,9.40
2011,06,15,02,55,9.40
2011,06,15,02,56,9.40
2011,06,15,02,57,9.40
2011,06,15,02,58,9.40
2011,06,15,02,59,9.40
2011,06,15,03,00,9.40
2011,06,15,03,01,9.30
2011,06,15,03,02,9.30
2011,06,15,03,03,9.30
2011,06,15,03,04,9.30
2011,06,15,03,05,9.30
2011,06,15,03,06,9.30
2011,06,15,03,07,9.30
2011,06,15,03,08,9.30
2011,06,15,03,09,9.30
2011,06,15,03,10,9.30
2011,06,15,03,11,9.30
2011,06,15,03,12,9.20
2011,06,15,03,13,9.20
2011,06,15,03,14,9.20
2011,06,15,03,15,9.20
2011,06,15,03,16,9.20
2011,06,15,03,17,9.20
2011,06,15,03,18,9.20
2011,06,15,03,19,9.20
2011,06,15,03,20,9.20
2011,06,15,03,21,9.20
2011,06,15,03,22,9.20
2011,06,15,03,23,9.20
2011,06,15,03,24,9.10
2011,06,15,03,25,9.10
2011,06,15,03,26,9.10
2011,06,15,03,27,9.10
2011,06,15,03,28,9.10
2011,06,15,03,29,9.10
2011,06,15,03,30,9.20
2011,06,15,03,31,9.10
2011,06,15,03,32,9.20
2011,06,15,03,33,9.20
2011,06,15,03,34,9.20
2011,06,15,03,35,9.20
2011,06,15,03,36,9.20
2011,06,15,03,37,9.20
2011,06,15,03,38,9.20
2011,06,15,03,39,9.20
2011,06,15,03,40,9.20
2011,06,15,03,41,9.10
2011,06,15,03,42,9.10
2011,06,15,03,43,9.10
2011,06,15,03,44,9.10
2011,06,15,03,45,9.10
2011,06,15,03,46,9.10
2011,06,15,03,47,9.10
2011,06,15,03,48,9.10
2011,06,15,03,49,9.10
2011,06,15,03,50,9.10
2011,06,15,03,51,9.10
2011,06,15,03,52,9.00
2011,06,15,03,53,9.00
2011,06,15,03,54,9.00
2011,06,15,03,55,9.00
2011,06,15,03,56,8.90
2011,06,15,03,57,8.90
2011,06,15,03,58,8.90
2011,06,15,03,59,8.90
2011,06,15,04,00,8.90
2011,06,15,04,01,8.90
2011,06,15,04,02,8.90
2011,06,15,04,03,8.90
2011,06,15,04,04,8.90
2011,06,15,04,05,8.90
2011,06,15,04,06,8.90
2011,06,15,04,07,8.90
2011,06,15,04,08,8.90
2011,06,15,04,09,8.90
2011,06,15,04,10,8.90
2011,06,15,04,11,8.90
2011,06,15,04,12,8.90
2011,06,15,04,13,8.90
2011,06,15,04,14,8.90
2011,06,15,04,15,8.90
2011,06,15,04,16,8.90
2011,06,15,04,17,8.80
2011,06,15,04,18,8.80
2011,06,15,04,19,8.80
2011,06,15,04,20,8.80
2011,06,15,04,21,8.80
2011,06,15,04,22,8.80
2011,06,15,04,23,8.80
2011,06,15,04,24,8.80
2011,06,15,04,25,8.80
2011,06,15,04,26,8.70
2011,06,15,04,27,8.70
2011,06,15,04,28,8.70
2011,06,15,04,29,8.70
2011,06,15,04,30,8.70
2011,06,15,04,31,8.70
2011,06,15,04,32,8.70
2011,06,15,04,33,8.70
2011,06,15,04,34,8.60
2011,06,15,04,35,8.60
2011,06,15,04,36,8.60
2011,06,15,04,37,8.60
2011,06,15,04,38,8.60
2011,06,15,04,39,8.60
2011,06,15,04,40,8.60
2011,06,15,04,41,8.60
2011,06,15,04,42,8.60
2011,06,15,04,43,8.60
2011,06,15,04,44,8.60
2011,06,15,04,45,8.60
2011,06,15,04,46,8.60
2011,06,15,04,47,8.60
2011,06,15,04,48,8.50
2011,06,15,04,49,8.50
2011,06,15,04,50,8.50
2011,06,15,04,51,8.50
2011,06,15,04,52,8.50
2011,06,15,04,53,8.40
2011,06,15,04,54,8.40
2011,06,15,04,55,8.40
2011,06,15,04,56,8.40
2011,06,15,04,57,8.40
2011,06,15,04,58,8.40
2011,06,15,04,59,8.40
2011,06,15,05,00,8.40
2011,06,15,05,01,8.30
2011,06,15,05,02,8.30
2011,06,15,05,03,8.30
2011,06,15,05,04,8.30
2011,06,15,05,05,8.30
2011,06,15,05,06,8.30
2011,06,15,05,07,8.30
2011,06,15,05,08,8.30
2011,06,15,05,09,8.20
2011,06,15,05,10,8.20
2011,06,15,05,11,8.10
2011,06,15,05,12,8.10
2011,06,15,05,13,8.10
2011,06,15,05,14,8.00
2011,06,15,05,15,8.00
2011,06,15,05,16,7.90
2011,06,15,05,17,7.90
2011,06,15,05,18,7.90
2011,06,15,05,19,7.90
2011,06,15,05,20,7.90
2011,06,15,05,21,7.90
2011,06,15,05,22,8.00
2011,06,15,05,23,8.00
2011,06,15,05,24,8.00
2011,06,15,05,25,8.00
2011,06,15,05,26,8.00
2011,06,15,05,27,7.90
2011,06,15,05,28,7.90
2011,06,15,05,29,7.90
2011,06,15,05,30,7.90
2011,06,15,05,31,7.90
2011,06,15,05,32,7.90
2011,06,15,05,33,7.90
2011,06,15,05,34,7.90
2011,06,15,05,35,7.80
2011,06,15,05,36,7.80
2011,06,15,05,37,7.80
2011,06,15,05,38,7.70
2011,06,15,05,39,7.70
2011,06,15,05,40,7.70
2011,06,15,05,41,7.80
2011,06,15,05,42,7.80
2011,06,15,05,43,7.80
2011,06,15,05,44,7.80
2011,06,15,05,45,7.90
2011,06,15,05,46,7.90
2011,06,15,05,47,7.90
2011,06,15,05,48,7.90
2011,06,15,05,49,7.90
2011,06,15,05,50,8.00
2011,06,15,05,51,7.90
2011,06,15,05,52,7.90
2011,06,15,05,53,8.00
2011,06,15,05,54,8.00
2011,06,15,05,55,8.00
2011,06,15,05,56,7.90
2011,06,15,05,57,7.90
2011,06,15,05,58,7.90
2011,06,15,05,59,7.90
2011,06,15,06,00,7.90
2011,06,15,06,01,7.90
2011,06,15,06,02,7.90
2011,06,15,06,03,7.90
2011,06,15,06,04,8.00
2011,06,15,06,05,8.00
2011,06,15,06,06,7.90
2011,06,15,06,07,7.90
2011,06,15,06,08,7.90
2011,06,15,06,09,7.90
2011,06,15,06,10,7.90
2011,06,15,06,11,7.90
2011,06,15,06,12,7.90
2011,06,15,06,13,7.80
2011,06,15,06,14,7.80
2011,06,15,06,15,7.80
2011,06,15,06,16,7.90
2011,06,15,06,17,7.90
2011,06,15,06,18,7.90
2011,06,15,06,19,7.90
2011,06,15,06,20,8.00
2011,06,15,06,21,8.00
2011,06,15,06,22,8.00
2011,06,15,06,23,8.00
2011,06,15,06,24,8.00
2011,06,15,06,25,8.00
2011,06,15,06,26,8.00
2011,06,15,06,27,8.00
2011,06,15,06,28,8.00
2011,06,15,06,29,8.00
2011,06,15,06,30,8.00
2011,06,15,06,31,8.10
2011,06,15,06,32,8.10
2011,06,15,06,33,8.10
2011,06,15,06,34,8.10
2011,06,15,06,35,8.10
2011,06,15,06,36,8.10
2011,06,15,06,37,8.10
2011,06,15,06,38,8.10
2011,06,15,06,39,8.20
2011,06,15,06,40,8.20
2011,06,15,06,41,8.20
2011,06,15,06,42,8.20
2011,06,15,06,43,8.20
2011,06,15,06,44,8.20
2011,06,15,06,45,8.20
2011,06,15,06,46,8.20
2011,06,15,06,47,8.20
2011,06,15,06,48,8.30
2011,06,15,06,49,8.30
2011,06,15,06,50,8.30
2011,06,15,06,51,8.30
2011,06,15,06,52,8.30
2011,06,15,06,53,8.30
2011,06,15,06,54,8.30
2011,06,15,06,55,8.30
2011,06,15,06,56,8.30
2011,06,15,06,57,8.30
2011,06,15,06,58,8.30
2011,06,15,06,59,8.30
2011,06,15,07,00,8.40
2011,06,15,07,01,8.40
2011,06,15,07,02,8.40
2011,06,15,07,03,8.40
2011,06,15,07,04,8.40
2011,06,15,07,05,8.40
2011,06,15,07,06,8.40
2011,06,15,07,07,8.40
2011,06,15,07,08,8.50
2011,06,15,07,09,8.50
2011,06,15,07,10,8.50
2011,06,15,07,11,8.60
2011,06,15,07,12,8.60
2011,06,15,07,13,8.60
2011,06,15,07,14,8.60
2011,06,15,07,15,8.60
2011,06,15,07,16,8.70
2011,06,15,07,17,8.70
2011,06,15,07,18,8.70
2011,06,15,07,19,8.80
2011,06,15,07,20,8.80
2011,06,15,07,21,8.80
2011,06,15,07,22,8.80
2011,06,15,07,23,8.90
2011,06,15,07,24,8.90
2011,06,15,07,25,8.90
2011,06,15,07,26,8.90
2011,06,15,07,27,8.90
2011,06,15,07,28,8.90
2011,06,15,07,29,9.00
2011,06,15,07,30,9.00
2011,06,15,07,31,9.00
2011,06,15,07,32,9.00
2011,06,15,07,33,9.00
2011,06,15,07,34,9.00
2011,06,15,07,35,9.00
2011,06,15,07,36,9.10
2011,06,15,07,37,9.10
2011,06,15,07,38,9.10
2011,06,15,07,39,9.20
2011,06,15,07,40,9.20
2011,06,15,07,41,9.30
2011,06,15,07,42,9.40
2011,06,15,07,43,9.50
2011,06,15,07,44,9.60
2011,06,15,07,45,9.70
2011,06,15,07,46,9.80
2011,06,15,07,47,9.80
2011,06,15,07,48,9.90
2011,06,15,07,49,10.00
2011,06,15,07,50,10.10
2011,06,15,07,51,10.20
2011,06,15,07,52,10.30
2011,06,15,07,53,10.30
2011,06,15,07,54,10.30
2011,06,15,07,55,10.30
2011,06,15,07,56,10.40
2011,06,15,07,57,10.40
2011,06,15,07,58,10.50
2011,06,15,07,59,10.40
2011,06,15,08,00,10.40
2011,06,15,08,01,10.50
2011,06,15,08,02,10.50
2011,06,15,08,03,10.70
2011,06,15,08,04,10.70
2011,06,15,08,05,10.80
2011,06,15,08,06,10.80
2011,06,15,08,07,10.80
2011,06,15,08,08,10.80
2011,06,15,08,09,10.80
2011,06,15,08,10,10.80
2011,06,15,08,11,10.80
2011,06,15,08,12,10.80
2011,06,15,08,13,10.80
2011,06,15,08,14,10.90
2011,06,15,08,15,11.00
2011,06,15,08,16,11.00
2011,06,15,08,17,11.10
2011,06,15,08,18,11.10
2011,06,15,08,19,11.10
2011,06,15,08,20,11.20
2011,06,15,08,21,11.20
2011,06,15,08,22,11.30
2011,06,15,08,23,11.40
2011,06,15,08,24,11.40
2011,06,15,08,25,11.40
2011,06,15,08,26,11.50
2011,06,15,08,27,11.50
2011,06,15,08,28,11.60
2011,06,15,08,29,11.70
2011,06,15,08,30,11.80
2011,06,15,08,31,11.90
2011,06,15,08,32,11.90
2011,06,15,08,33,12.00
2011,06,15,08,34,12.00
2011,06,15,08,35,12.00
2011,06,15,08,36,12.00
2011,06,15,08,37,12.00
2011,06,15,08,38,11.90
2011,06,15,08,39,12.00
2011,06,15,08,40,12.10
2011,06,15,08,41,12.20
2011,06,15,08,42,12.30
2011,06,15,08,43,12.30
2011,06,15,08,44,12.30
2011,06,15,08,45,12.40
2011,06,15,08,46,12.40
2011,06,15,08,47,12.40
2011,06,15,08,48,12.40
2011,06,15,08,49,12.40
2011,06,15,08,50,12.40
2011,06,15,08,51,12.30
2011,06,15,08,52,12.30
2011,06,15,08,53,12.20
2011,06,15,08,54,12.20
2011,06,15,08,55,12.20
2011,06,15,08,56,12.20
2011,06,15,08,57,12.20
2011,06,15,08,58,12.10
2011,06,15,08,59,12.10
2011,06,15,09,00,12.10
2011,06,15,09,01,12.10
2011,06,15,09,02,12.20
2011,06,15,09,03,12.30
2011,06,15,09,04,12.30
2011,06,15,09,05,12.40
2011,06,15,09,06,12.50
2011,06,15,09,07,12.60
2011,06,15,09,08,12.70
2011,06,15,09,09,12.80
2011,06,15,09,10,12.90
2011,06,15,09,11,12.90
2011,06,15,09,12,12.90
2011,06,15,09,13,12.80
2011,06,15,09,14,12.70
2011,06,15,09,15,12.60
2011,06,15,09,16,12.60
2011,06,15,09,17,12.60
2011,06,15,09,18,12.60
2011,06,15,09,19,12.60
2011,06,15,09,20,12.60
2011,06,15,09,21,12.70
2011,06,15,09,22,12.70
2011,06,15,09,23,12.70
2011,06,15,09,24,12.70
2011,06,15,09,25,12.70
2011,06,15,09,26,12.70
2011,06,15,09,27,12.70
2011,06,15,09,28,12.70
2011,06,15,09,29,12.70
2011,06,15,09,30,12.70
2011,06,15,09,31,12.80
2011,06,15,09,32,12.80
2011,06,15,09,33,12.80
2011,06,15,09,34,12.80
2011,06,15,09,35,12.90
2011,06,15,09,36,12.90
2011,06,15,09,37,12.90
2011,06,15,09,38,12.90
2011,06,15,09,39,12.80
2011,06,15,09,40,12.80
2011,06,15,09,41,12.80
2011,06,15,09,42,12.80
2011,06,15,09,43,12.80
2011,06,15,09,44,12.80
2011,06,15,09,45,12.80
2011,06,15,09,46,12.80
2011,06,15,09,47,12.80
2011,06,15,09,48,12.90
2011,06,15,09,49,12.90
2011,06,15,09,50,13.00
2011,06,15,09,51,13.10
2011,06,15,09,52,13.20
2011,06,15,09,53,13.20
2011,06,15,09,54,13.20
2011,06,15,09,55,13.20
2011,06,15,09,56,13.30
2011,06,15,09,57,13.30
2011,06,15,09,58,13.30
2011,06,15,09,59,13.30
2011,06,15,10,00,13.30
2011,06,15,10,01,13.30
2011,06,15,10,02,13.30
2011,06,15,10,03,13.30
2011,06,15,10,04,13.30
2011,06,15,10,05,13.30
2011,06,15,10,06,13.20
2011,06,15,10,07,13.30
2011,06,15,10,08,13.30
2011,06,15,10,09,13.30
2011,06,15,10,10,13.40
2011,06,15,10,11,13.40
2011,06,15,10,12,13.50
2011,06,15,10,13,13.50
2011,06,15,10,14,13.50
2011,06,15,10,15,13.60
2011,06,15,10,16,13.60
2011,06,15,10,17,13.60
2011,06,15,10,18,13.60
2011,06,15,10,19,13.60
2011,06,15,10,20,13.60
2011,06,15,10,21,13.60
2011,06,15,10,22,13.60
2011,06,15,10,23,13.50
2011,06,15,10,24,13.50
2011,06,15,10,25,13.40
2011,06,15,10,26,13.40
2011,06,15,10,27,13.40
2011,06,15,10,28,13.40
2011,06,15,10,29,13.30
2011,06,15,10,30,13.30
2011,06,15,10,31,13.30
2011,06,15,10,32,13.40
2011,06,15,10,33,13.40
2011,06,15,10,34,13.40
2011,06,15,10,35,13.40
2011,06,15,10,36,13.40
2011,06,15,10,37,13.40
2011,06,15,10,38,13.40
2011,06,15,10,39,13.40
2011,06,15,10,40,13.30
2011,06,15,10,41,13.30
2011,06,15,10,42,13.30
2011,06,15,10,43,13.30
2011,06,15,10,44,13.30
2011,06,15,10,45,13.40
2011,06,15,10,46,13.40
2011,06,15,10,47,13.40
2011,06,15,10,48,13.40
2011,06,15,10,49,13.40
2011,06,15,10,50,13.40
2011,06,15,10,51,13.40
2011,06,15,10,52,13.40
2011,06,15,10,53,13.30
2011,06,15,10,54,13.30
2011,06,15,10,55,13.30
2011,06,15,10,56,13.30
2011,06,15,10,57,13.30
2011,06,15,10,58,13.30
2011,06,15,10,59,13.40
2011,06,15,11,00,13.40
2011,06,15,11,01,13.40
2011,06,15,11,02,13.40
2011,06,15,11,03,13.40
2011,06,15,11,04,13.40
2011,06,15,11,05,13.40
2011,06,15,11,06,13.40
2011,06,15,11,07,13.40
2011,06,15,11,08,13.50
2011,06,15,11,09,13.50
2011,06,15,11,10,13.60
2011,06,15,11,11,13.60
2011,06,15,11,12,13.60
2011,06,15,11,13,13.70
2011,06,15,11,14,13.70
2011,06,15,11,15,13.70
2011,06,15,11,16,13.70
2011,06,15,11,17,13.80
2011,06,15,11,18,13.80
2011,06,15,11,19,13.80
2011,06,15,11,20,13.80
2011,06,15,11,21,13.80
2011,06,15,11,22,13.80
2011,06,15,11,23,13.80
2011,06,15,11,24,13.90
2011,06,15,11,25,14.00
2011,06,15,11,26,14.00
2011,06,15,11,27,14.10
2011,06,15,11,28,14.10
2011,06,15,11,29,14.10
2011,06,15,11,30,14.10
2011,06,15,11,31,14.10
2011,06,15,11,32,14.00
2011,06,15,11,33,14.00
2011,06,15,11,34,13.90
2011,06,15,11,35,13.90
2011,06,15,11,36,14.00
2011,06,15,11,37,14.10
2011,06,15,11,38,14.10
2011,06,15,11,39,14.00
2011,06,15,11,40,14.00
2011,06,15,11,41,14.00
2011,06,15,11,42,14.00
2011,06,15,11,43,14.00
2011,06,15,11,44,14.00
2011,06,15,11,45,14.10
2011,06,15,11,46,14.20
2011,06,15,11,47,14.20
2011,06,15,11,48,14.20
2011,06,15,11,49,14.30
2011,06,15,11,50,14.30
2011,06,15,11,51,14.20
2011,06,15,11,52,14.20
2011,06,15,11,53,14.20
2011,06,15,11,54,14.20
2011,06,15,11,55,14.30
2011,06,15,11,56,14.30
2011,06,15,11,57,14.30
2011,06,15,11,58,14.30
2011,06,15,11,59,14.30
2011,06,15,12,00,14.20
2011,06,15,12,01,14.20
2011,06,15,12,02,14.10
2011,06,15,12,03,14.10
2011,06,15,12,04,14.10
2011,06,15,12,05,14.10
2011,06,15,12,06,14.10
2011,06,15,12,07,14.10
2011,06,15,12,08,14.10
2011,06,15,12,09,14.00
2011,06,15,12,10,14.00
2011,06,15,12,11,14.00
2011,06,15,12,12,13.90
2011,06,15,12,13,13.90
2011,06,15,12,14,14.00
2011,06,15,12,15,14.10
2011,06,15,12,16,14.20
2011,06,15,12,17,14.30
2011,06,15,12,18,14.40
2011,06,15,12,19,14.30
2011,06,15,12,20,14.30
2011,06,15,12,21,14.30
2011,06,15,12,22,14.30
2011,06,15,12,23,14.40
2011,06,15,12,24,14.50
2011,06,15,12,25,14.50
2011,06,15,12,26,14.50
2011,06,15,12,27,14.50
2011,06,15,12,28,14.60
2011,06,15,12,29,14.70
2011,06,15,12,30,14.70
2011,06,15,12,31,14.70
2011,06,15,12,32,14.80
2011,06,15,12,33,14.80
2011,06,15,12,34,14.90
2011,06,15,12,35,14.90
2011,06,15,12,36,14.90
2011,06,15,12,37,14.90
2011,06,15,12,38,14.90
2011,06,15,12,39,14.90
2011,06,15,12,40,14.80
2011,06,15,12,41,14.80
2011,06,15,12,42,14.70
2011,06,15,12,43,14.70
2011,06,15,12,44,14.70
2011,06,15,12,45,14.70
2011,06,15,12,46,14.70
2011,06,15,12,47,14.70
2011,06,15,12,48,14.70
2011,06,15,12,49,14.70
2011,06,15,12,50,14.70
2011,06,15,12,51,14.70
2011,06,15,12,52,14.70
2011,06,15,12,53,14.80
2011,06,15,12,54,14.80
2011,06,15,12,55,14.90
2011,06,15,12,56,14.90
2011,06,15,12,57,14.80
2011,06,15,12,58,14.80
2011,06,15,12,59,14.90
2011,06,15,13,00,15.00
2011,06,15,13,01,15.10
2011,06,15,13,02,15.10
2011,06,15,13,03,15.20
2011,06,15,13,04,15.10
2011,06,15,13,05,15.10
2011,06,15,13,06,15.10
2011,06,15,13,07,15.10
2011,06,15,13,08,15.10
2011,06,15,13,09,15.20
2011,06,15,13,10,15.10
2011,06,15,13,11,15.10
2011,06,15,13,12,15.10
2011,06,15,13,13,15.20
2011,06,15,13,14,15.30
2011,06,15,13,15,15.40
2011,06,15,13,16,15.50
2011,06,15,13,17,15.60
2011,06,15,13,18,15.70
2011,06,15,13,19,15.60
2011,06,15,13,20,15.60
2011,06,15,13,21,15.50
2011,06,15,13,22,15.50
2011,06,15,13,23,15.60
2011,06,15,13,24,15.60
2011,06,15,13,25,15.60
2011,06,15,13,26,15.60
2011,06,15,13,27,15.50
2011,06,15,13,28,15.40
2011,06,15,13,29,15.30
2011,06,15,13,30,15.30
2011,06,15,13,31,15.30
2011,06,15,13,32,15.40
2011,06,15,13,33,15.50
2011,06,15,13,34,15.60
2011,06,15,13,35,15.60
2011,06,15,13,36,15.70
2011,06,15,13,37,15.60
2011,06,15,13,38,15.60
2011,06,15,13,39,15.60
2011,06,15,13,40,15.50
2011,06,15,13,41,15.50
2011,06,15,13,42,15.40
2011,06,15,13,43,15.50
2011,06,15,13,44,15.60
2011,06,15,13,45,15.70
2011,06,15,13,46,15.70
2011,06,15,13,47,15.70
2011,06,15,13,48,15.80
2011,06,15,13,49,15.80
2011,06,15,13,50,15.80
2011,06,15,13,51,15.80
2011,06,15,13,52,15.80
2011,06,15,13,53,15.80
2011,06,15,13,54,15.80
2011,06,15,13,55,15.90
2011,06,15,13,56,15.90
2011,06,15,13,57,15.90
2011,06,15,13,58,16.00
2011,06,15,13,59,16.10
2011,06,15,14,00,16.10
2011,06,15,14,01,16.10
2011,06,15,14,02,16.00
2011,06,15,14,03,15.90
2011,06,15,14,04,15.90
2011,06,15,14,05,15.90
2011,06,15,14,06,15.90
2011,06,15,14,07,15.80
2011,06,15,14,08,15.70
2011,06,15,14,09,15.70
2011,06,15,14,10,15.80
2011,06,15,14,11,15.80
2011,06,15,14,12,15.80
2011,06,15,14,13,15.90
2011,06,15,14,14,15.90
2011,06,15,14,15,16.20
2011,06,15,14,16,16.30
2011,06,15,14,17,16.40
2011,06,15,14,18,16.50
2011,06,15,14,19,16.60
2011,06,15,14,20,16.70
2011,06,15,14,21,16.70
2011,06,15,14,22,16.70
2011,06,15,14,23,16.70
2011,06,15,14,24,16.70
2011,06,15,14,25,16.70
2011,06,15,14,26,16.60
2011,06,15,14,27,16.60
2011,06,15,14,28,16.60
2011,06,15,14,29,16.60
2011,06,15,14,30,16.50
2011,06,15,14,31,16.50
2011,06,15,14,32,16.40
2011,06,15,14,33,16.40
2011,06,15,14,34,16.30
2011,06,15,14,35,16.30
2011,06,15,14,36,16.30
2011,06,15,14,37,16.40
2011,06,15,14,38,16.50
2011,06,15,14,39,16.50
2011,06,15,14,40,16.60
2011,06,15,14,41,16.60
2011,06,15,14,42,16.50
2011,06,15,14,43,16.50
2011,06,15,14,44,16.50
2011,06,15,14,45,16.40
2011,06,15,14,46,16.40
2011,06,15,14,47,16.40
2011,06,15,14,48,16.40
2011,06,15,14,49,16.40
2011,06,15,14,50,16.50
2011,06,15,14,51,16.60
2011,06,15,14,52,16.60
2011,06,15,14,53,16.70
2011,06,15,14,54,16.80
2011,06,15,14,55,16.90
2011,06,15,14,56,17.00
2011,06,15,14,57,17.00
2011,06,15,14,58,17.00
2011,06,15,14,59,17.10
2011,06,15,15,00,17.10
2011,06,15,15,01,17.10
2011,06,15,15,02,17.20
2011,06,15,15,03,17.30
2011,06,15,15,04,17.40
2011,06,15,15,05,17.40
2011,06,15,15,06,17.20
2011,06,15,15,07,17.10
2011,06,15,15,08,17.00
2011,06,15,15,09,16.90
2011,06,15,15,10,16.90
2011,06,15,15,11,16.90
2011,06,15,15,12,17.00
2011,06,15,15,13,17.10
2011,06,15,15,14,17.30
2011,06,15,15,15,17.40
2011,06,15,15,16,17.50
2011,06,15,15,17,17.60
2011,06,15,15,18,17.50
2011,06,15,15,19,17.50
2011,06,15,15,20,17.40
2011,06,15,15,21,17.40
2011,06,15,15,22,17.40
2011,06,15,15,23,17.50
2011,06,15,15,24,17.60
2011,06,15,15,25,17.50
2011,06,15,15,26,17.40
2011,06,15,15,27,17.50
2011,06,15,15,28,17.60
2011,06,15,15,29,17.60
2011,06,15,15,30,17.60
2011,06,15,15,31,17.60
2011,06,15,15,32,17.70
2011,06,15,15,33,17.70
2011,06,15,15,34,17.70
2011,06,15,15,35,17.70
2011,06,15,15,36,17.70
2011,06,15,15,37,17.70
2011,06,15,15,38,17.80
2011,06,15,15,39,17.70
2011,06,15,15,40,17.70
2011,06,15,15,41,17.70
2011,06,15,15,42,17.70
2011,06,15,15,43,17.60
2011,06,15,15,44,17.50
2011,06,15,15,45,17.50
2011,06,15,15,46,17.50
2011,06,15,15,47,17.50
2011,06,15,15,48,17.60
2011,06,15,15,49,17.60
2011,06,15,15,50,17.70
2011,06,15,15,51,17.60
2011,06,15,15,52,17.50
2011,06,15,15,53,17.30
2011,06,15,15,54,17.30
2011,06,15,15,55,17.20
2011,06,15,15,56,17.10
2011,06,15,15,57,17.10
2011,06,15,15,58,17.00
2011,06,15,15,59,17.10
2011,06,15,16,00,17.20
2011,06,15,16,01,17.40
2011,06,15,16,02,17.60
2011,06,15,16,03,17.60
2011,06,15,16,04,17.70
2011,06,15,16,05,17.80
2011,06,15,16,06,17.90
2011,06,15,16,07,17.80
2011,06,15,16,08,17.80
2011,06,15,16,09,17.70
2011,06,15,16,10,17.70
2011,06,15,16,11,17.70
2011,06,15,16,12,17.70
2011,06,15,16,13,17.70
2011,06,15,16,14,17.70
2011,06,15,16,15,17.70
2011,06,15,16,16,17.70
2011,06,15,16,17,17.70
2011,06,15,16,18,17.80
2011,06,15,16,19,17.70
2011,06,15,16,20,17.60
2011,06,15,16,21,17.60
2011,06,15,16,22,17.70
2011,06,15,16,23,17.80
2011,06,15,16,24,17.80
2011,06,15,16,25,17.80
2011,06,15,16,26,17.70
2011,06,15,16,27,17.60
2011,06,15,16,28,17.50
2011,06,15,16,29,17.50
2011,06,15,16,30,17.40
2011,06,15,16,31,17.50
2011,06,15,16,32,17.50
2011,06,15,16,33,17.50
2011,06,15,16,34,17.40
2011,06,15,16,35,17.40
2011,06,15,16,36,17.40
2011,06,15,16,37,17.40
2011,06,15,16,38,17.40
2011,06,15,16,39,17.50
2011,06,15,16,40,17.60
2011,06,15,16,41,17.70
2011,06,15,16,42,17.60
2011,06,15,16,43,17.50
2011,06,15,16,44,17.50
2011,06,15,16,45,17.40
2011,06,15,16,46,17.40
2011,06,15,16,47,17.50
2011,06,15,16,48,17.50
2011,06,15,16,49,17.50
2011,06,15,16,50,17.40
2011,06,15,16,51,17.50
2011,06,15,16,52,17.50
2011,06,15,16,53,17.40
2011,06,15,16,54,17.30
2011,06,15,16,55,17.40
2011,06,15,16,56,17.40
2011,06,15,16,57,17.30
2011,06,15,16,58,17.30
2011,06,15,16,59,17.30
2011,06,15,17,00,17.30
2011,06,15,17,01,17.30
2011,06,15,17,02,17.40
2011,06,15,17,03,17.30
2011,06,15,17,04,17.40
2011,06,15,17,05,17.40
2011,06,15,17,06,17.30
2011,06,15,17,07,17.30
2011,06,15,17,08,17.30
2011,06,15,17,09,17.40
2011,06,15,17,10,17.50
2011,06,15,17,11,17.50
2011,06,15,17,12,17.50
2011,06,15,17,13,17.40
2011,06,15,17,14,17.40
2011,06,15,17,15,17.40
2011,06,15,17,16,17.40
2011,06,15,17,17,17.50
2011,06,15,17,18,17.60
2011,06,15,17,19,17.70
2011,06,15,17,20,17.60
2011,06,15,17,21,17.60
2011,06,15,17,22,17.70
2011,06,15,17,23,17.70
2011,06,15,17,24,17.60
2011,06,15,17,25,17.60
2011,06,15,17,26,17.50
2011,06,15,17,27,17.50
2011,06,15,17,28,17.50
2011,06,15,17,29,17.60
2011,06,15,17,30,17.50
2011,06,15,17,31,17.50
2011,06,15,17,32,17.40
2011,06,15,17,33,17.40
2011,06,15,17,34,17.40
2011,06,15,17,35,17.40
2011,06,15,17,36,17.40
2011,06,15,17,37,17.50
2011,06,15,17,38,17.50
2011,06,15,17,39,17.50
2011,06,15,17,40,17.60
2011,06,15,17,41,17.60
2011,06,15,17,42,17.60